Home > Weather > Bernau bei Berlin > Past weeks

Flag for Germany Past Weather in Bernau bei Berlin, Brandenburg, Germany — Yesterday and Last 2 Weeks

Now
95 °F

Partly sunny.


Feels Like: 93 °F
Forecast: 60 / 72 °F
Wind: 8 mph from Southwest

Location: Berlin-Tegel

Current Time: Aug 28, 2016 at 4:07:56 PM

Latest Report: Aug 28, 2016 at 3:20 PM


Visibility: N/A

Pressure: 29.86 "Hg

Humidity: 25%

Dew Point: 54 °F

Location of Bernau bei BerlinLocation

Past Weather in Bernau bei Berlin — Graph

°F

Bernau bei Berlin Temperature Yesterday

Maximum temperature yesterday: 90 °F (at 3:50 PM)
Minimum temperature yesterday: 63 °F (at 5:20 AM)
Average temperature yesterday: 76 °F

High & Low Weather Summary for the Past Weeks

 TemperatureHumidityPressure
High93 °F (Aug 26, 3:20 PM)100% (Aug 17, 3:50 AM)30.33 "Hg (Aug 17, 3:50 AM)
Low46 °F (Aug 17, 5:50 AM)12% (Aug 26, 4:20 PM)29.80 "Hg (Aug 18, 4:20 PM)
Average68 °F64%30.07 "Hg
* Reported Aug 13 2:20 PM — Aug 28 2:50 PM, Bernau bei Berlin, Weather by CustomWeather, © 2016

Note: Actual official high and low records may vary slightly from our data, if they occured in-between our weather recording intervals... More about our weather records

Advertising

Bernau bei Berlin Weather History for the Previous 24 Hours

Scroll right to see more
 ConditionsComfort  
Time TempWeatherWind HumidityBarometerVisibility
2:50 PM
Sun, Aug 28
91 °FPartly sunny.8 mph28%29.86 "HgN/A
2:20 PM91 °FPartly sunny.8 mph30%29.89 "HgN/A
1:50 PM90 °FPassing clouds.9 mph29%29.89 "HgN/A
1:20 PM90 °FPassing clouds.9 mph31%29.89 "HgN/A
12:50 PM88 °FPassing clouds.8 mph33%29.89 "HgN/A
12:20 PM84 °FPassing clouds.9 mph35%29.92 "HgN/A
11:50 AM84 °FPassing clouds.8 mph37%29.92 "HgN/A
11:20 AM82 °FPassing clouds.8 mph40%29.92 "HgN/A
10:50 AM81 °FSunny.5 mph42%29.95 "Hg10 mi
10:20 AM79 °FSunny.3 mph45%29.95 "Hg10 mi
9:50 AM77 °FPassing clouds.7 mph54%29.95 "HgN/A
9:20 AM75 °FPassing clouds.7 mph57%29.95 "HgN/A
8:50 AM73 °FSunny.7 mph61%29.95 "Hg10 mi
8:20 AM72 °FSunny.7 mph65%29.95 "Hg10 mi
7:50 AM70 °FSunny.5 mph73%29.95 "Hg10 mi
7:20 AM68 °FPassing clouds.5 mph78%29.95 "HgN/A
6:50 AM66 °FClear.2 mph83%29.98 "Hg10 mi
6:20 AM66 °FClear.2 mph83%29.98 "Hg10 mi
5:50 AM66 °FClear.2 mph83%29.98 "Hg10 mi
5:20 AM64 °FFog.1 mph88%29.98 "HgN/A
4:50 AM66 °FClear.2 mph83%29.98 "Hg10 mi
4:20 AM66 °FPassing clouds.3 mph83%29.98 "HgN/A
3:50 AM66 °FClear.3 mph83%29.98 "Hg10 mi
3:20 AM68 °FPassing clouds.5 mph78%30.01 "HgN/A
2:50 AM68 °FClear.3 mph78%30.01 "Hg10 mi
2:20 AM68 °FPassing clouds.3 mph78%30.01 "HgN/A
1:50 AM70 °FPassing clouds.5 mph73%30.01 "HgN/A
1:20 AM70 °FPassing clouds.5 mph73%30.04 "HgN/A
12:50 AM70 °FPassing clouds.5 mph73%30.04 "HgN/A
12:20 AM70 °FPassing clouds.6 mph73%30.04 "HgN/A
11:50 PM
Sat, Aug 27
72 °FPassing clouds.5 mph69%30.07 "HgN/A
11:20 PM73 °FPassing clouds.6 mph69%30.07 "HgN/A
10:50 PM73 °FPassing clouds.7 mph69%30.07 "HgN/A
10:20 PM75 °FPassing clouds.7 mph65%30.07 "HgN/A
9:50 PM75 °FPassing clouds.6 mph65%30.07 "HgN/A
9:20 PM77 °FPassing clouds.7 mph61%30.07 "HgN/A
8:50 PM79 °FPassing clouds.7 mph58%30.07 "HgN/A
8:20 PM81 °FPassing clouds.8 mph54%30.07 "HgN/A
7:50 PM82 °FPassing clouds.7 mph48%30.07 "HgN/A
7:20 PM84 °FPassing clouds.6 mph43%30.04 "HgN/A
6:50 PM86 °FPassing clouds.6 mph40%30.04 "HgN/A
6:20 PM88 °FPassing clouds.6 mph38%30.04 "HgN/A
5:50 PM88 °FPassing clouds.6 mph38%30.07 "HgN/A
5:20 PM88 °FPassing clouds.7 mph35%30.07 "HgN/A
4:50 PM90 °FPassing clouds.6 mph33%30.07 "HgN/A
4:20 PM88 °FPassing clouds.7 mph35%30.07 "HgN/A
Weather by CustomWeather, © 2016

See weather overviewHow to use our weather pages